Location: Mannheim
(49.4880°N, 8.4650°E)
Time: 07:23:12
(UTC+01:00)

ISS - Pass Details

Date: 25 November 2022
Orbit: 411 x 420 km, 51.6° (Epoch: 29 November)

Event Time Altitude Azimuth Distance (km) Brightness Sun altitude
Rises 19:26:33 0° 279° (W) 2,347 1.3 -27.5°
Reaches altitude 10° 19:28:40 10° 284° (WNW) 1,484 -0.1 -27.8°
Enters shadow 19:29:44 19° 289° (WNW) 1,063 -1.0 -28.0°
